2022/02/21 23:31:58+0000,-37.34,-44.90,-30.41,-48.61,-51.14,-53.70
2022/02/21 23:32:50+0000,-37.51,-44.09,-30.58,-49.83,-50.71,-53.76
2022/02/21 23:33:42+0000,-37.11,-44.14,-30.32,-49.83,-52.21,-53.12
2022/02/21 23:34:34+0000,-36.97,-44.22,-30.40,-51.44,-50.74,-53.82
2022/02/21 23:35:26+0000,-37.17,-43.89,-30.29,-48.65,-51.82,-53.96
2022/02/21 23:36:18+0000,-37.06,-44.82,-29.80,-49.07,-51.68,-53.57
2022/02/21 23:37:10+0000,-32.81,-44.00,-29.84,-45.59,-51.64,-54.03
2022/02/21 23:38:02+0000,-34.97,-45.69,-30.78,-47.95,-51.50,-54.30
2022/02/21 23:38:54+0000,-32.48,-44.79,-30.62,-49.31,-50.27,-53.56
2022/02/21 23:39:46+0000,-34.26,-44.61,-29.99,-47.74,-49.25,-53.71
2022/02/21 23:40:38+0000,-32.57,-44.95,-29.89,-48.58,-50.77,-54.18
2022/02/21 23:41:39+0000,-35.06,-44.98,-30.55,-46.25,-51.29,-54.28
2022/02/21 23:42:31+0000,-32.57,-43.50,-30.35,-50.18,-50.90,-54.37
2022/02/21 23:43:23+0000,-33.17,-44.31,-30.38,-49.67,-50.35,-53.99
2022/02/21 23:44:15+0000,-32.37,-45.50,-30.44,-47.73,-52.05,-53.91
2022/02/21 23:45:07+0000,-32.29,-45.44,-30.47,-48.91,-53.01,-54.06
2022/02/21 23:45:59+0000,-34.07,-45.55,-30.74,-50.75,-50.99,-53.82
2022/02/21 23:46:51+0000,-34.22,-44.88,-30.14,-48.96,-52.22,-53.97
2022/02/21 23:47:43+0000,-33.60,-46.14,-30.12,-47.16,-52.06,-54.04
2022/02/21 23:48:35+0000,-32.59,-46.09,-30.59,-52.04,-51.68,-53.65
2022/02/21 23:49:27+0000,-33.00,-44.57,-30.40,-45.63,-51.07,-53.95
2022/02/21 23:50:19+0000,-35.62,-44.31,-30.94,-52.13,-51.34,-53.70
2022/02/21 23:51:19+0000,-33.26,-44.45,-30.05,-51.87,-52.06,-54.11
2022/02/21 23:52:11+0000,-33.98,-44.22,-30.01,-47.30,-51.60,-52.94
2022/02/21 23:53:03+0000,-33.43,-43.61,-30.26,-50.46,-51.00,-53.25
2022/02/21 23:53:55+0000,-32.06,-43.69,-30.26,-45.41,-51.27,-53.34
2022/02/21 23:54:47+0000,-33.04,-43.32,-30.39,-46.88,-51.18,-53.66
2022/02/21 23:55:39+0000,-34.68,-44.82,-30.32,-48.86,-49.90,-53.60
2022/02/21 23:56:31+0000,-34.94,-45.52,-30.37,-48.34,-51.40,-54.01
2022/02/21 23:57:23+0000,-34.08,-43.08,-30.40,-48.68,-51.46,-53.51
2022/02/21 23:58:16+0000,-35.08,-43.17,-30.12,-49.29,-50.62,-53.62
2022/02/21 23:59:08+0000,-34.27,-43.82,-30.24,-48.95,-49.95,-54.30
2022/02/22 00:00:00+0000,-32.57,-43.87,-31.26,-47.97,-50.76,-53.44
2022/02/22 00:01:04+0000,-32.62,-45.45,-30.93,-48.75,-51.35,-54.09
2022/02/22 00:01:57+0000,-32.80,-42.62,-30.40,-47.57,-51.67,-53.48
2022/02/22 00:02:49+0000,-32.61,-42.85,-30.32,-52.14,-50.66,-54.32
2022/02/22 00:03:41+0000,-32.71,-43.92,-30.83,-49.53,-51.04,-54.49
2022/02/22 00:04:33+0000,-34.07,-43.98,-29.69,-51.84,-50.76,-54.50
2022/02/22 00:05:25+0000,-32.76,-43.72,-30.20,-48.01,-51.44,-53.73
2022/02/22 00:06:17+0000,-32.87,-44.37,-29.44,-49.63,-50.13,-53.42
2022/02/22 00:07:09+0000,-35.06,-43.31,-29.84,-49.29,-51.20,-53.62
2022/02/22 00:08:01+0000,-34.66,-42.38,-30.57,-44.27,-49.89,-54.22
2022/02/22 00:08:53+0000,-33.86,-44.10,-30.70,-47.89,-50.33,-54.30
2022/02/22 00:09:45+0000,-33.98,-43.27,-30.69,-48.71,-49.47,-54.22
2022/02/22 00:10:37+0000,-33.89,-43.23,-30.54,-48.01,-50.66,-53.66
2022/02/22 00:11:37+0000,-33.54,-43.55,-30.77,-48.53,-49.94,-53.49
2022/02/22 00:12:29+0000,-35.79,-43.91,-30.47,-48.49,-51.32,-53.86
2022/02/22 00:13:21+0000,-34.77,-44.10,-30.70,-49.83,-50.67,-53.70
2022/02/22 00:14:13+0000,-32.27,-44.46,-29.38,-49.86,-51.42,-54.18
2022/02/22 00:15:05+0000,-32.72,-44.70,-30.93,-47.49,-51.78,-53.95
2022/02/22 00:15:57+0000,-33.84,-44.02,-30.40,-48.18,-51.73,-53.69
2022/02/22 00:16:49+0000,-35.89,-44.67,-29.78,-51.57,-50.35,-53.72
2022/02/22 00:17:41+0000,-32.02,-43.53,-30.40,-49.17,-51.12,-54.22
2022/02/22 00:18:33+0000,-33.54,-44.16,-30.11,-51.57,-50.70,-53.74
2022/02/22 00:19:25+0000,-35.58,-44.45,-29.64,-50.20,-51.96,-54.17
2022/02/22 00:20:17+0000,-34.73,-43.49,-29.52,-48.59,-51.14,-53.70
2022/02/22 00:21:18+0000,-32.97,-43.86,-30.04,-51.32,-50.95,-53.87
2022/02/22 00:22:10+0000,-32.47,-41.76,-30.33,-48.60,-51.53,-53.89
2022/02/22 00:23:02+0000,-35.87,-43.63,-29.96,-49.58,-50.84,-53.52
2022/02/22 00:23:54+0000,-32.08,-43.79,-31.17,-49.58,-50.89,-53.58
2022/02/22 00:24:46+0000,-34.19,-44.14,-30.38,-48.94,-51.20,-54.34
2022/02/22 00:25:38+0000,-34.68,-43.99,-29.72,-48.61,-51.45,-54.11
2022/02/22 00:26:30+0000,-33.83,-44.54,-30.05,-48.34,-50.36,-54.33
2022/02/22 00:27:22+0000,-34.63,-45.59,-30.27,-49.20,-50.14,-53.84
2022/02/22 00:28:14+0000,-33.20,-44.80,-30.55,-47.81,-51.06,-53.42
2022/02/22 00:29:06+0000,-33.19,-45.39,-30.21,-46.94,-50.71,-53.37
2022/02/22 00:29:58+0000,-33.42,-46.12,-30.22,-47.93,-52.13,-53.70
2022/02/22 00:30:50+0000,-33.41,-44.37,-29.07,-49.05,-50.71,-54.04
2022/02/22 00:31:51+0000,-33.82,-44.63,-29.95,-48.57,-51.09,-53.53
2022/02/22 00:32:43+0000,-34.13,-44.54,-29.85,-44.42,-51.21,-53.98
2022/02/22 00:33:35+0000,-32.84,-43.78,-30.93,-50.58,-51.83,-53.88
2022/02/22 00:34:27+0000,-32.69,-44.46,-29.58,-48.06,-52.08,-53.82
2022/02/22 00:35:19+0000,-33.00,-42.18,-30.28,-49.61,-51.19,-53.70
2022/02/22 00:36:11+0000,-33.05,-43.03,-29.57,-46.45,-51.79,-53.92
2022/02/22 00:37:03+0000,-35.60,-43.90,-29.34,-48.81,-51.55,-53.28
2022/02/22 00:37:55+0000,-34.97,-43.98,-29.56,-48.62,-51.49,-53.23
2022/02/22 00:38:47+0000,-34.53,-44.02,-30.01,-46.55,-51.23,-54.03
2022/02/22 00:39:40+0000,-32.09,-42.97,-30.23,-44.60,-51.60,-53.64
2022/02/22 00:40:32+0000,-34.01,-43.77,-29.86,-49.49,-50.92,-53.48
2022/02/22 00:41:31+0000,-33.66,-43.60,-29.87,-49.36,-51.08,-53.31
2022/02/22 00:42:23+0000,-33.47,-44.04,-29.68,-49.45,-47.70,-53.88
2022/02/22 00:43:15+0000,-35.50,-43.50,-30.41,-47.43,-50.80,-53.66
2022/02/22 00:44:07+0000,-34.58,-43.83,-29.65,-49.43,-50.94,-53.75
2022/02/22 00:44:59+0000,-32.49,-43.01,-30.30,-49.27,-51.32,-53.65
2022/02/22 00:45:51+0000,-33.26,-43.98,-30.61,-50.09,-50.86,-53.88
2022/02/22 00:46:44+0000,-33.51,-42.98,-30.27,-48.59,-50.90,-53.65
2022/02/22 00:47:36+0000,-32.26,-43.32,-30.51,-51.13,-51.99,-53.73
2022/02/22 00:48:28+0000,-33.96,-42.82,-30.09,-48.51,-51.74,-53.78
2022/02/22 00:49:20+0000,-32.13,-40.90,-30.60,-51.14,-51.52,-54.01
2022/02/22 00:50:12+0000,-32.52,-41.54,-29.96,-47.58,-52.47,-53.19
2022/02/22 00:51:10+0000,-35.15,-41.64,-29.85,-48.26,-51.71,-53.76
2022/02/22 00:52:02+0000,-32.51,-41.73,-30.16,-49.27,-51.43,-54.45
2022/02/22 00:52:54+0000,-32.34,-39.45,-30.11,-49.86,-51.39,-54.43
2022/02/22 00:53:46+0000,-33.08,-42.47,-30.24,-49.25,-51.71,-53.77
2022/02/22 00:54:38+0000,-33.54,-43.34,-30.10,-49.43,-50.97,-54.08
2022/02/22 00:55:30+0000,-32.99,-41.27,-30.29,-46.55,-51.88,-54.32
2022/02/22 00:56:23+0000,-34.66,-43.59,-30.78,-49.53,-52.41,-53.51
2022/02/22 00:57:15+0000,-32.24,-42.18,-30.60,-49.50,-51.97,-54.76
2022/02/22 00:58:07+0000,-33.98,-42.93,-29.40,-49.08,-52.02,-54.04
2022/02/22 00:58:59+0000,-30.84,-41.21,-30.31,-48.95,-52.70,-53.81
2022/02/22 00:59:51+0000,-32.30,-42.93,-30.11,-51.00,-51.44,-54.28
2022/02/22 01:00:43+0000,-32.15,-44.50,-30.16,-49.84,-51.89,-53.98
2022/02/22 01:01:48+0000,-33.26,-43.79,-30.00,-50.98,-51.34,-53.92
2022/02/22 01:02:40+0000,-32.60,-44.16,-29.63,-50.35,-52.10,-53.85
2022/02/22 01:03:32+0000,-30.59,-43.46,-29.88,-49.52,-52.54,-53.30
2022/02/22 01:04:24+0000,-34.43,-43.83,-29.14,-49.41,-52.06,-54.25
2022/02/22 01:05:16+0000,-34.63,-43.87,-29.94,-48.75,-51.38,-54.10
2022/02/22 01:06:08+0000,-29.98,-43.85,-29.48,-49.65,-52.00,-54.30
2022/02/22 01:07:00+0000,-33.25,-43.16,-29.19,-49.76,-51.45,-53.83
2022/02/22 01:07:52+0000,-34.12,-44.18,-29.10,-49.91,-51.66,-53.84
2022/02/22 01:08:44+0000,-32.70,-43.10,-30.10,-49.32,-50.87,-53.91
2022/02/22 01:09:36+0000,-33.75,-44.09,-29.09,-47.21,-51.47,-53.86
2022/02/22 01:10:28+0000,-32.19,-44.26,-30.05,-48.67,-51.57,-53.36
2022/02/22 01:11:28+0000,-34.88,-44.28,-30.04,-49.93,-51.28,-53.98
2022/02/22 01:12:20+0000,-34.53,-44.04,-29.68,-50.38,-50.97,-54.18
2022/02/22 01:13:12+0000,-33.22,-43.95,-30.16,-47.00,-51.16,-53.97
2022/02/22 01:14:04+0000,-31.01,-44.90,-29.80,-52.25,-51.82,-54.20
2022/02/22 01:14:56+0000,-34.54,-44.50,-29.80,-48.54,-51.39,-54.44
2022/02/22 01:15:48+0000,-30.52,-43.44,-29.95,-51.74,-51.27,-53.35
2022/02/22 01:16:40+0000,-33.92,-44.29,-29.90,-49.70,-51.65,-53.40
2022/02/22 01:17:32+0000,-34.47,-43.58,-30.65,-50.46,-52.03,-53.72
2022/02/22 01:18:24+0000,-31.76,-43.26,-29.90,-48.50,-51.52,-54.07
2022/02/22 01:19:16+0000,-31.86,-43.58,-30.04,-47.84,-53.45,-54.88
2022/02/22 01:20:09+0000,-33.44,-43.68,-29.81,-50.30,-52.41,-54.22
2022/02/22 01:21:09+0000,-33.25,-43.90,-30.29,-49.86,-53.36,-55.23
2022/02/22 01:22:01+0000,-33.39,-43.72,-29.62,-48.45,-53.37,-55.58
2022/02/22 01:22:53+0000,-35.15,-44.65,-29.96,-48.10,-53.36,-54.93
2022/02/22 01:23:45+0000,-33.70,-43.39,-29.73,-49.72,-53.53,-55.06
2022/02/22 01:24:37+0000,-34.29,-44.37,-29.95,-50.46,-0.34,-54.67
2022/02/22 01:25:29+0000,-31.58,-43.63,-29.11,-47.95,-53.22,-55.36
2022/02/22 01:26:21+0000,-35.09,-44.87,-29.57,-47.96,-53.10,-55.15
2022/02/22 01:27:13+0000,-33.99,-41.80,-30.06,-47.80,-52.90,-55.36
2022/02/22 01:28:05+0000,-33.62,-41.83,-28.90,-48.49,-53.07,-55.01
2022/02/22 01:28:57+0000,-33.97,-41.32,-30.20,-46.49,-53.03,-54.82
2022/02/22 01:29:50+0000,-33.71,-42.12,-30.20,-51.11,-53.16,-54.60
2022/02/22 01:30:42+0000,-33.04,-43.41,-29.49,-50.11,-53.01,-54.98
2022/02/22 01:31:42+0000,-34.49,-43.44,-30.01,-48.01,-52.88,-55.64
2022/02/22 01:32:34+0000,-32.12,-42.55,-30.04,-51.18,-53.25,-55.07
2022/02/22 01:33:26+0000,-32.55,-43.36,-29.59,-49.92,-53.19,-55.78
2022/02/22 01:34:18+0000,-32.81,-43.07,-30.31,-49.77,-53.02,-55.31
2022/02/22 01:35:10+0000,-33.93,-43.52,-30.27,-50.44,-53.00,-55.07
2022/02/22 01:36:02+0000,-34.82,-43.67,-29.95,-46.56,-53.16,-54.96
2022/02/22 01:36:54+0000,-35.27,-43.72,-30.20,-46.96,-53.46,-55.50
2022/02/22 01:37:46+0000,-31.81,-42.28,-29.88,-47.92,-53.36,-54.87
2022/02/22 01:38:38+0000,-31.56,-43.61,-30.35,-49.45,-52.93,-54.51
2022/02/22 01:39:30+0000,-33.19,-43.48,-29.91,-46.98,-53.02,-55.31
2022/02/22 01:40:23+0000,-34.63,-45.19,-29.73,-43.75,-52.89,-55.07
2022/02/22 01:41:21+0000,-34.37,-43.04,-30.64,-49.47,-52.41,-55.53
2022/02/22 01:42:13+0000,-34.15,-44.03,-30.99,-45.78,-52.52,-55.10
2022/02/22 01:43:05+0000,-32.98,-43.34,-30.16,-51.77,-53.38,-54.90
2022/02/22 01:43:57+0000,-33.92,-43.26,-30.33,-48.38,-52.89,-55.39
2022/02/22 01:44:49+0000,-31.76,-42.65,-30.50,-51.10,-52.27,-55.30
2022/02/22 01:45:41+0000,-31.29,-43.37,-30.24,-48.47,-52.84,-54.98
2022/02/22 01:46:33+0000,-33.53,-43.14,-30.14,-48.03,-52.94,-55.21
2022/02/22 01:47:25+0000,-32.60,-43.05,-30.10,-48.79,-53.06,-55.24
2022/02/22 01:48:17+0000,-32.41,-43.02,-30.25,-49.28,-52.89,-55.06
2022/02/22 01:49:09+0000,-34.28,-43.19,-29.68,-48.53,-53.22,-55.79
2022/02/22 01:50:02+0000,-33.09,-43.53,-30.03,-49.27,-53.44,-54.79
2022/02/22 01:50:59+0000,-33.50,-43.44,-29.95,-47.97,-52.75,-55.02
2022/02/22 01:51:52+0000,-31.63,-44.29,-29.62,-48.92,-52.51,-55.15
2022/02/22 01:52:44+0000,-32.71,-43.42,-30.01,-47.30,-52.91,-55.28
2022/02/22 01:53:36+0000,-34.49,-43.77,-30.10,-51.10,-53.19,-55.24
2022/02/22 01:54:28+0000,-34.08,-45.25,-30.02,-48.33,-52.91,-54.70
2022/02/22 01:55:20+0000,-31.82,-43.67,-29.90,-50.65,-52.93,-55.29
2022/02/22 01:56:12+0000,-32.69,-41.91,-30.74,-47.62,-52.79,-55.17
2022/02/22 01:57:04+0000,-34.30,-43.45,-30.13,-48.87,-53.30,-55.22
2022/02/22 01:57:56+0000,-33.37,-41.88,-29.81,-49.72,-53.85,-54.72
2022/02/22 01:58:48+0000,-28.81,-44.21,-30.52,-47.91,-53.56,-54.97
2022/02/22 01:59:40+0000,-31.00,-43.17,-30.10,-45.77,-53.76,-55.19
2022/02/22 02:00:32+0000,-34.66,-43.04,-29.72,-49.32,-53.21,-54.75
2022/02/22 02:01:38+0000,-31.89,-41.37,-29.96,-46.57,-52.48,-55.14
2022/02/22 02:02:30+0000,-34.34,-42.70,-30.58,-48.63,-53.12,-54.59
2022/02/22 02:03:22+0000,-31.75,-42.55,-30.17,-48.59,-53.60,-54.80
2022/02/22 02:04:15+0000,-31.74,-43.50,-30.26,-47.50,-53.98,-55.17
2022/02/22 02:05:07+0000,-33.05,-38.18,-30.04,-48.69,-53.35,-55.30
2022/02/22 02:05:59+0000,-33.15,-42.90,-29.76,-48.65,-53.06,-55.03
2022/02/22 02:06:51+0000,-31.20,-43.48,-29.62,-48.59,-52.93,-54.71
2022/02/22 02:07:43+0000,-34.41,-42.51,-30.47,-47.55,-53.10,-55.14
2022/02/22 02:08:35+0000,-32.01,-44.97,-30.43,-47.53,-53.31,-53.93
2022/02/22 02:09:27+0000,-31.42,-43.87,-29.83,-48.90,-54.02,-54.89
2022/02/22 02:10:19+0000,-32.88,-41.77,-30.22,-50.05,-52.96,-54.83
2022/02/22 02:11:18+0000,-33.59,-42.92,-30.69,-50.48,-53.33,-54.69
2022/02/22 02:12:10+0000,-33.18,-43.74,-29.64,-47.58,-53.21,-55.26
2022/02/22 02:13:02+0000,-33.87,-43.76,-30.11,-49.25,-51.58,-55.55
2022/02/22 02:13:54+0000,-31.16,-42.41,-30.11,-47.25,-53.28,-55.04
2022/02/22 02:14:46+0000,-31.02,-42.38,-29.98,-48.32,-53.44,-54.72
2022/02/22 02:15:38+0000,-31.33,-44.53,-30.22,-48.09,-48.70,-55.12
2022/02/22 02:16:30+0000,-33.11,-43.20,-30.95,-49.09,-53.77,-54.91
2022/02/22 02:17:22+0000,-32.27,-44.70,-30.20,-48.45,-53.56,-55.04
2022/02/22 02:18:14+0000,-30.65,-40.66,-30.45,-46.22,-54.06,-55.37
2022/02/22 02:19:06+0000,-33.12,-43.46,-30.23,-47.46,-53.88,-54.81
2022/02/22 02:19:58+0000,-33.75,-42.46,-30.35,-49.40,-53.52,-54.91
2022/02/22 02:20:50+0000,-32.50,-43.88,-29.97,-50.16,-53.75,-55.20
2022/02/22 02:21:48+0000,-31.11,-42.04,-30.94,-50.60,-54.00,-54.73
2022/02/22 02:22:40+0000,-30.30,-42.51,-30.44,-48.44,-52.79,-54.08
2022/02/22 02:23:32+0000,-33.29,-42.52,-30.45,-49.63,-48.89,-55.07
2022/02/22 02:24:24+0000,-32.56,-43.28,-30.20,-50.51,-53.03,-54.77
2022/02/22 02:25:16+0000,-36.06,-40.82,-30.48,-48.08,-53.77,-53.63
2022/02/22 02:26:08+0000,-32.61,-40.95,-30.60,-46.29,-53.58,-53.97
2022/02/22 02:27:00+0000,-33.62,-42.15,-30.67,-49.80,-53.32,-53.35
2022/02/22 02:27:52+0000,-33.71,-42.74,-30.78,-50.02,-53.12,-53.61
2022/02/22 02:28:45+0000,-36.42,-39.56,-30.76,-48.49,-53.26,-53.74
2022/02/22 02:29:37+0000,-33.15,-42.30,-30.23,-48.11,-53.00,-53.36
2022/02/22 02:30:29+0000,-30.88,-41.43,-30.76,-50.33,-53.22,-53.33
2022/02/22 02:31:29+0000,-32.82,-42.48,-30.67,-49.57,-53.08,-54.07
2022/02/22 02:32:21+0000,-33.16,-43.32,-30.58,-49.46,-52.90,-54.21
2022/02/22 02:33:13+0000,-32.68,-40.44,-30.64,-47.31,-52.73,-53.48
2022/02/22 02:34:05+0000,-31.12,-41.99,-30.41,-49.20,-52.20,-54.16
2022/02/22 02:34:57+0000,-30.38,-42.13,-31.11,-49.63,-52.09,-53.21
2022/02/22 02:35:49+0000,-31.52,-40.62,-30.29,-50.56,-52.55,-53.38
2022/02/22 02:36:41+0000,-32.02,-40.35,-30.34,-49.48,-53.08,-53.43
2022/02/22 02:37:33+0000,-34.41,-42.43,-30.85,-50.71,-52.78,-53.70
2022/02/22 02:38:26+0000,-33.21,-41.79,-29.54,-50.06,-52.77,-54.36
2022/02/22 02:39:18+0000,-34.52,-41.19,-30.03,-49.89,-52.57,-53.13
2022/02/22 02:40:10+0000,-32.47,-40.54,-31.32,-48.81,-53.58,-53.55
2022/02/22 02:41:11+0000,-33.24,-41.15,-30.53,-49.34,-53.37,-54.23
2022/02/22 02:42:03+0000,-32.01,-40.73,-30.89,-50.05,-52.69,-53.49
2022/02/22 02:42:55+0000,-30.02,-39.28,-30.63,-50.13,-52.16,-54.22
2022/02/22 02:43:47+0000,-30.26,-42.13,-30.92,-49.43,-52.27,-53.76
2022/02/22 02:44:39+0000,-30.93,-42.72,-30.41,-49.61,-52.35,-53.17
2022/02/22 02:45:31+0000,-30.55,-43.61,-30.91,-49.68,-51.81,-53.95
2022/02/22 02:46:23+0000,-34.13,-43.01,-31.27,-49.61,-52.57,-54.18
2022/02/22 02:47:15+0000,-33.29,-40.03,-30.45,-49.11,-52.47,-52.93
2022/02/22 02:48:07+0000,-33.45,-42.38,-30.40,-49.64,-52.94,-53.61
2022/02/22 02:49:00+0000,-30.02,-43.06,-30.32,-49.19,-53.00,-53.56
2022/02/22 02:49:52+0000,-31.48,-44.49,-30.71,-49.52,-53.06,-53.84
2022/02/22 02:50:44+0000,-31.95,-42.72,-30.35,-49.60,-53.00,-52.72
2022/02/22 02:51:44+0000,-31.27,-42.88,-30.60,-48.36,-54.01,-53.68
2022/02/22 02:52:36+0000,-34.00,-43.62,-30.39,-48.90,-53.53,-53.77
2022/02/22 02:53:28+0000,-34.23,-42.54,-31.34,-49.86,-53.50,-53.89
2022/02/22 02:54:20+0000,-33.76,-41.82,-30.22,-49.88,-53.43,-53.15
2022/02/22 02:55:12+0000,-30.57,-42.69,-30.45,-48.32,-53.91,-53.01
2022/02/22 02:56:04+0000,-33.14,-43.14,-30.10,-49.72,-53.18,-53.75
2022/02/22 02:56:56+0000,-34.10,-43.17,-30.65,-49.01,-53.38,-53.75
2022/02/22 02:57:48+0000,-32.03,-41.26,-30.11,-47.84,-53.50,-53.22
2022/02/22 02:58:40+0000,-32.28,-43.27,-30.31,-48.30,-53.70,-54.17
2022/02/22 02:59:32+0000,-31.99,-41.89,-30.31,-49.23,-52.20,-53.84
2022/02/22 03:00:25+0000,-33.21,-42.16,-30.54,-49.63,-53.27,-53.26
2022/02/22 03:01:25+0000,-29.75,-42.09,-30.81,-49.52,-51.87,-53.36
2022/02/22 03:02:17+0000,-31.06,-43.09,-31.26,-49.99,-52.02,-53.34
2022/02/22 03:03:09+0000,-31.64,-41.69,-30.63,-49.49,-52.17,-53.79
2022/02/22 03:04:01+0000,-34.82,-41.49,-30.99,-50.25,-52.14,-53.54
2022/02/22 03:04:53+0000,-34.15,-42.68,-30.73,-50.48,-52.03,-53.38
2022/02/22 03:05:45+0000,-31.65,-43.40,-30.41,-46.54,-52.09,-53.15
2022/02/22 03:06:37+0000,-30.63,-43.54,-30.61,-47.77,-52.12,-53.06
2022/02/22 03:07:29+0000,-33.07,-43.14,-30.52,-45.78,-52.04,-53.60
2022/02/22 03:08:21+0000,-34.61,-44.23,-30.15,-49.35,-51.74,-53.87
2022/02/22 03:09:13+0000,-32.94,-41.89,-31.02,-48.50,-53.28,-53.62
2022/02/22 03:10:06+0000,-32.96,-43.71,-31.05,-50.35,-53.38,-53.65
2022/02/22 03:11:09+0000,-31.33,-42.67,-30.34,-50.49,-52.14,-53.71
2022/02/22 03:12:01+0000,-34.39,-42.76,-31.22,-51.88,-51.51,-53.72
2022/02/22 03:12:53+0000,-32.10,-43.37,-31.09,-50.62,-53.25,-53.83
2022/02/22 03:13:45+0000,-30.28,-41.73,-30.55,-50.84,-52.12,-53.94
2022/02/22 03:14:37+0000,-30.54,-43.74,-30.45,-50.48,-51.50,-53.55
2022/02/22 03:15:29+0000,-34.09,-42.55,-30.71,-50.60,-52.30,-54.02
2022/02/22 03:16:21+0000,-33.01,-42.81,-30.97,-50.63,-52.18,-54.06
2022/02/22 03:17:13+0000,-31.65,-40.78,-30.28,-50.18,-51.91,-54.21
2022/02/22 03:18:05+0000,-31.83,-41.95,-30.27,-50.41,-51.80,-53.94
2022/02/22 03:18:57+0000,-31.38,-41.80,-30.82,-50.32,-51.79,-53.67
2022/02/22 03:19:49+0000,-30.78,-42.12,-30.51,-51.15,-51.60,-53.93
2022/02/22 03:20:41+0000,-32.81,-42.72,-30.66,-50.42,-51.12,-53.74
2022/02/22 03:21:42+0000,-32.79,-42.64,-30.47,-50.68,-51.64,-54.06
2022/02/22 03:22:34+0000,-32.08,-42.63,-30.26,-50.37,-51.62,-53.57
2022/02/22 03:23:26+0000,-31.44,-42.53,-30.63,-49.99,-51.40,-53.89
2022/02/22 03:24:18+0000,-30.28,-42.16,-30.60,-50.09,-51.85,-53.61
2022/02/22 03:25:10+0000,-32.01,-40.78,-31.22,-50.45,-51.81,-53.48
2022/02/22 03:26:02+0000,-33.50,-41.74,-29.90,-50.03,-51.63,-54.34
2022/02/22 03:26:54+0000,-35.45,-42.27,-30.55,-50.06,-51.91,-53.15
2022/02/22 03:27:46+0000,-33.63,-42.36,-30.93,-50.62,-52.35,-53.53
2022/02/22 03:28:38+0000,-34.99,-41.29,-29.84,-50.97,-51.37,-53.67
2022/02/22 03:29:30+0000,-36.18,-42.64,-30.45,-49.78,-51.13,-53.56
2022/02/22 03:30:23+0000,-32.73,-41.82,-31.11,-50.93,-50.79,-54.00
2022/02/22 03:31:24+0000,-34.12,-42.91,-30.50,-50.68,-51.44,-53.64
2022/02/22 03:32:16+0000,-34.26,-41.95,-30.37,-51.05,-50.49,-53.31
2022/02/22 03:33:08+0000,-33.84,-42.32,-30.66,-51.37,-50.85,-52.92
2022/02/22 03:34:00+0000,-35.76,-42.13,-29.88,-50.65,-53.32,-53.45
2022/02/22 03:34:52+0000,-35.06,-43.20,-30.79,-51.19,-53.63,-53.85
2022/02/22 03:35:44+0000,-33.88,-42.59,-30.25,-51.34,-53.63,-53.50
2022/02/22 03:36:36+0000,-33.90,-44.42,-30.35,-50.95,-53.38,-53.86
2022/02/22 03:37:28+0000,-32.56,-42.93,-30.65,-50.48,-53.84,-53.64
2022/02/22 03:38:20+0000,-34.28,-42.96,-30.58,-51.04,-54.00,-53.24
2022/02/22 03:39:12+0000,-35.15,-42.83,-30.57,-50.48,-53.56,-53.90
2022/02/22 03:40:04+0000,-33.30,-42.01,-30.18,-50.75,-53.44,-53.99
2022/02/22 03:41:05+0000,-32.43,-42.36,-30.36,-51.44,-54.32,-53.94
2022/02/22 03:41:57+0000,-34.73,-41.62,-30.55,-51.06,-53.91,-53.80
2022/02/22 03:42:49+0000,-32.49,-42.07,-30.46,-51.03,-53.32,-53.52
2022/02/22 03:43:41+0000,-32.38,-43.40,-30.21,-50.94,-54.20,-54.12
2022/02/22 03:44:33+0000,-34.42,-43.17,-30.69,-50.55,-53.41,-53.85
2022/02/22 03:45:25+0000,-32.02,-42.58,-30.72,-50.69,-52.82,-53.46
2022/02/22 03:46:17+0000,-31.58,-42.99,-30.64,-51.39,-53.27,-53.92
2022/02/22 03:47:10+0000,-34.70,-42.94,-30.64,-51.37,-53.46,-54.51
2022/02/22 03:48:02+0000,-34.57,-41.16,-30.59,-51.08,-52.75,-54.41
2022/02/22 03:48:54+0000,-32.99,-41.95,-31.02,-50.99,-53.31,-54.29
2022/02/22 03:49:46+0000,-32.77,-42.23,-30.63,-51.12,-53.39,-54.03
2022/02/22 03:50:38+0000,-33.96,-43.44,-30.55,-50.79,-53.97,-54.04
2022/02/22 03:51:40+0000,-33.86,-42.18,-31.05,-50.87,-53.48,-53.61
2022/02/22 03:52:32+0000,-34.61,-41.97,-30.70,-50.88,-53.24,-54.12
2022/02/22 03:53:24+0000,-31.27,-40.57,-30.68,-51.64,-53.27,-54.09
2022/02/22 03:54:16+0000,-34.34,-41.06,-30.65,-50.79,-54.30,-53.40
2022/02/22 03:55:08+0000,-32.96,-42.64,-30.58,-49.83,-53.19,-53.91
2022/02/22 03:56:00+0000,-33.52,-40.00,-30.60,-50.61,-52.69,-54.18
2022/02/22 03:56:52+0000,-32.81,-42.23,-31.06,-50.49,-53.06,-53.37
2022/02/22 03:57:44+0000,-32.99,-42.27,-30.63,-50.76,-52.85,-53.95
2022/02/22 03:58:36+0000,-33.90,-43.42,-30.64,-51.14,-52.45,-53.92
2022/02/22 03:59:28+0000,-33.72,-41.68,-30.71,-51.03,-51.67,-50.80
2022/02/22 04:00:21+0000,-32.27,-42.83,-30.53,-49.60,-51.65,-50.78
2022/02/22 04:01:22+0000,-32.39,-41.81,-30.58,-49.94,-51.45,-50.58
2022/02/22 04:02:14+0000,-32.49,-42.22,-30.83,-49.89,-52.39,-50.98
2022/02/22 04:03:06+0000,-34.13,-42.65,-30.81,-50.71,-51.88,-50.47
2022/02/22 04:03:58+0000,-33.23,-40.43,-31.21,-49.75,-52.20,-50.63
2022/02/22 04:04:50+0000,-34.66,-41.95,-30.75,-50.21,-52.11,-50.87
2022/02/22 04:05:42+0000,-33.36,-41.04,-30.56,-49.77,-51.95,-51.09
2022/02/22 04:06:34+0000,-34.32,-41.11,-30.83,-49.58,-51.82,-50.79
2022/02/22 04:07:26+0000,-33.97,-41.41,-30.71,-49.69,-51.07,-50.52
2022/02/22 04:08:18+0000,-34.70,-41.20,-30.64,-49.88,-51.32,-50.40
2022/02/22 04:09:10+0000,-34.17,-40.36,-30.18,-49.86,-51.80,-50.73
2022/02/22 04:10:02+0000,-32.09,-40.67,-31.22,-49.42,-51.44,-51.04
2022/02/22 04:11:02+0000,-33.80,-42.30,-31.39,-49.40,-51.26,-50.75
2022/02/22 04:11:54+0000,-33.04,-41.30,-30.99,-49.67,-51.76,-50.52
2022/02/22 04:12:46+0000,-33.51,-40.31,-31.03,-49.19,-51.50,-51.02
2022/02/22 04:13:38+0000,-32.24,-40.77,-30.85,-49.54,-51.66,-50.87
2022/02/22 04:14:31+0000,-33.65,-42.32,-30.83,-49.39,-51.51,-50.35
2022/02/22 04:15:23+0000,-33.88,-41.67,-31.18,-49.47,-51.23,-51.08
2022/02/22 04:16:15+0000,-34.04,-40.78,-30.81,-49.14,-51.17,-50.84
2022/02/22 04:17:07+0000,-33.42,-44.04,-30.89,-48.32,-51.63,-51.25
2022/02/22 04:17:59+0000,-31.26,-42.20,-31.61,-48.80,-51.38,-50.40
2022/02/22 04:18:51+0000,-33.44,-42.66,-31.06,-48.16,-51.36,-50.60
2022/02/22 04:19:43+0000,-32.98,-41.61,-31.12,-48.97,-51.41,-51.47
2022/02/22 04:20:35+0000,-34.70,-43.07,-31.44,-49.23,-51.71,-50.49
2022/02/22 04:21:37+0000,-33.39,-43.92,-31.45,-49.22,-51.85,-51.25
2022/02/22 04:22:29+0000,-32.83,-42.04,-31.08,-48.99,-51.15,-50.52
2022/02/22 04:23:21+0000,-32.77,-42.29,-30.56,-48.17,-51.93,-51.00
2022/02/22 04:24:13+0000,-33.76,-42.07,-31.06,-47.73,-52.16,-51.80
2022/02/22 04:25:05+0000,-34.45,-42.47,-31.70,-48.31,-51.32,-51.03
2022/02/22 04:25:57+0000,-33.43,-42.90,-31.23,-49.22,-52.16,-50.85
2022/02/22 04:26:49+0000,-34.87,-41.42,-30.58,-48.31,-51.01,-51.12
2022/02/22 04:27:41+0000,-33.39,-42.11,-31.00,-49.57,-51.21,-50.99
2022/02/22 04:28:33+0000,-32.26,-41.87,-31.00,-49.51,-52.12,-50.90
2022/02/22 04:29:25+0000,-32.90,-41.41,-31.49,-48.73,-51.44,-51.04
2022/02/22 04:30:17+0000,-31.40,-42.55,-31.13,-48.11,-51.51,-51.03
2022/02/22 04:31:18+0000,-33.86,-41.09,-30.78,-49.26,-51.27,-50.55
2022/02/22 04:32:10+0000,-32.36,-41.01,-30.60,-47.72,-51.36,-51.15
2022/02/22 04:33:02+0000,-34.13,-41.37,-30.67,-48.52,-51.93,-50.25
2022/02/22 04:33:54+0000,-33.88,-42.03,-30.90,-49.63,-52.00,-50.78
2022/02/22 04:34:46+0000,-33.04,-39.90,-31.00,-49.37,-51.45,-50.50
2022/02/22 04:35:38+0000,-34.47,-43.00,-31.54,-49.85,-51.41,-50.30
2022/02/22 04:36:30+0000,-33.83,-42.22,-31.03,-49.62,-51.87,-50.94
2022/02/22 04:37:22+0000,-33.16,-42.12,-31.12,-49.20,-51.52,-51.14
2022/02/22 04:38:14+0000,-33.18,-40.55,-31.32,-47.84,-51.82,-51.19
2022/02/22 04:39:06+0000,-32.25,-42.45,-31.15,-47.51,-51.66,-50.32
2022/02/22 04:39:58+0000,-33.02,-42.28,-31.35,-47.91,-49.24,-50.34
2022/02/22 04:40:50+0000,-31.56,-39.86,-31.03,-48.14,-49.48,-50.59
2022/02/22 04:41:48+0000,-31.10,-40.86,-31.35,-47.58,-49.21,-50.31
2022/02/22 04:42:40+0000,-33.25,-39.47,-30.76,-47.42,-51.23,-51.25
2022/02/22 04:43:32+0000,-34.03,-41.99,-30.62,-47.41,-50.96,-50.33
2022/02/22 04:44:24+0000,-32.15,-41.70,-30.81,-47.90,-51.26,-50.92
2022/02/22 04:45:16+0000,-33.50,-40.59,-30.99,-47.73,-50.99,-50.52
2022/02/22 04:46:08+0000,-34.85,-43.62,-30.56,-48.03,-51.05,-50.81